• In Deutschland
  • Länderverzeichnis
  • Für 7 Tage
  • Wassertemperatur
  • Satellitenkarten
  • Wetterkarte
  • Widgets
  • user-avatar
    Anmelden

    Stündliche Wetter Unterhaching

    Heute, 21 Oktober, Samstag

    Zeit Temperatur Niederschläge Wind Luftdruck Luftfeuchtigkeit
    00:00 +12°C° 0 mm 2 m/S 714 mmHg 79%
    01:00 +12°C° 0 mm 2 m/S 714 mmHg 80%
    02:00 +12°C° 0 mm 2 m/S 714 mmHg 80%
    03:00 +12°C° 0 mm 2 m/S 714 mmHg 80%
    04:00 +12°C° 0 mm 2 m/S 713 mmHg 80%
    05:00 +12°C° 0 mm 2 m/S 713 mmHg 79%
    06:00 +10°C° 0 mm 2 m/S 714 mmHg 79%
    07:00 +10°C° 0 mm 2 m/S 714 mmHg 79%
    08:00 +13°C° 0 mm 2 m/S 714 mmHg 74%
    09:00 +15°C° 0 mm 2 m/S 714 mmHg 69%
    10:00 +17°C° 0 mm 2 m/S 714 mmHg 64%
    11:00 +18°C° 0 mm 2 m/S 714 mmHg 62%
    12:00 +19°C° 0 mm 3 m/S 713 mmHg 59%
    13:00 +20°C° 0 mm 3 m/S 713 mmHg 57%
    14:00 +19°C° 0 mm 2 m/S 713 mmHg 61%
    15:00 +19°C° 0 mm 2 m/S 713 mmHg 65%
    16:00 +19°C° 0 mm 1 m/S 712 mmHg 70%
    17:00 +16°C° 0 mm 1 m/S 712 mmHg 73%
    18:00 +15°C° 0 mm 1 m/S 712 mmHg 77%
    19:00 +13°C° 0 mm 1 m/S 712 mmHg 81%
    20:00 +13°C° 0 mm 2 m/S 713 mmHg 82%
    21:00 +12°C° 0 mm 2 m/S 713 mmHg 83%
    22:00 +12°C° 0 mm 2 m/S 713 mmHg 84%
    23:00 +11°C° 0,6 mm 3 m/S 713 mmHg 86%

    Morgen, 22 Oktober, Sonntag

    Zeit Temperatur Niederschläge Wind Luftdruck Luftfeuchtigkeit
    00:00 +10°C° 0,6 mm 3 m/S 714 mmHg 88%
    01:00 +10°C° 0,6 mm 4 m/S 714 mmHg 91%
    02:00 +10°C° 0,8 mm 4 m/S 714 mmHg 92%
    03:00 +9°C° 0,8 mm 3 m/S 714 mmHg 92%
    04:00 +9°C° 0,8 mm 3 m/S 714 mmHg 93%
    05:00 +8°C° 0,7 mm 3 m/S 714 mmHg 94%
    06:00 +8°C° 0,7 mm 3 m/S 714 mmHg 94%
    07:00 +8°C° 0,7 mm 2 m/S 714 mmHg 94%
    08:00 +8°C° 0,6 mm 3 m/S 714 mmHg 92%
    09:00 +8°C° 0,6 mm 3 m/S 714 mmHg 90%
    10:00 +8°C° 0,6 mm 3 m/S 714 mmHg 88%
    11:00 +9°C° 0,4 mm 3 m/S 714 mmHg 85%
    12:00 +9°C° 0,4 mm 3 m/S 714 mmHg 83%
    13:00 +9°C° 0,4 mm 3 m/S 713 mmHg 81%
    14:00 +9°C° 0,6 mm 3 m/S 713 mmHg 83%
    15:00 +8°C° 0,6 mm 2 m/S 713 mmHg 85%
    16:00 +8°C° 0,6 mm 2 m/S 713 mmHg 87%
    17:00 +7°C° 0,4 mm 2 m/S 713 mmHg 88%
    18:00 +7°C° 0,4 mm 2 m/S 714 mmHg 89%
    19:00 +6°C° 0,4 mm 2 m/S 714 mmHg 90%
    20:00 +6°C° 0,2 mm 2 m/S 714 mmHg 91%
    21:00 +6°C° 0,2 mm 2 m/S 714 mmHg 92%
    22:00 +5°C° 0,2 mm 3 m/S 714 mmHg 92%
    23:00 +4°C° 0,2 mm 3 m/S 714 mmHg 93%

    übermorgen, 23 Oktober, Montag

    Zeit Temperatur Niederschläge Wind Luftdruck Luftfeuchtigkeit
    00:00 +4°C° 0,2 mm 3 m/S 714 mmHg 93%
    01:00 +4°C° 0,2 mm 3 m/S 714 mmHg 94%
    02:00 +4°C° 0,2 mm 3 m/S 714 mmHg 94%
    03:00 +4°C° 0,2 mm 3 m/S 714 mmHg 94%
    04:00 +4°C° 0,2 mm 3 m/S 714 mmHg 94%
    05:00 +4°C° 0,3 mm 3 m/S 714 mmHg 94%
    06:00 +4°C° 0,3 mm 3 m/S 714 mmHg 94%
    07:00 +4°C° 0,3 mm 3 m/S 715 mmHg 93%
    08:00 +5°C° 0,6 mm 3 m/S 715 mmHg 93%
    09:00 +5°C° 0,6 mm 4 m/S 715 mmHg 92%
    10:00 +5°C° 0,6 mm 4 m/S 715 mmHg 91%
    11:00 +5°C° 0,6 mm 4 m/S 715 mmHg 91%
    12:00 +6°C° 0,6 mm 4 m/S 715 mmHg 90%
    13:00 +6°C° 0,6 mm 4 m/S 715 mmHg 89%
    14:00 +6°C° 0,4 mm 4 m/S 715 mmHg 89%
    15:00 +7°C° 0,4 mm 3 m/S 715 mmHg 89%
    16:00 +7°C° 0,4 mm 3 m/S 715 mmHg 89%
    17:00 +7°C° 0,5 mm 3 m/S 716 mmHg 91%
    18:00 +6°C° 0,5 mm 2 m/S 716 mmHg 93%
    19:00 +6°C° 0,5 mm 2 m/S 716 mmHg 95%
    20:00 +6°C° 0,3 mm 2 m/S 717 mmHg 96%
    21:00 +5°C° 0,3 mm 2 m/S 717 mmHg 96%
    22:00 +5°C° 0,3 mm 2 m/S 717 mmHg 97%
    23:00 +5°C° 0,3 mm 2 m/S 717 mmHg 96%

    24 Oktober, Dienstag

    Zeit Temperatur Niederschläge Wind Luftdruck Luftfeuchtigkeit
    00:00 +6°C° 0,3 mm 2 m/S 717 mmHg 96%
    01:00 +6°C° 0,3 mm 2 m/S 717 mmHg 96%
    02:00 +6°C° 0,2 mm 2 m/S 717 mmHg 96%
    03:00 +6°C° 0,2 mm 2 m/S 718 mmHg 96%
    04:00 +6°C° 0,2 mm 2 m/S 718 mmHg 96%
    05:00 +7°C° 0,1 mm 1 m/S 718 mmHg 96%
    06:00 +7°C° 0,1 mm 1 m/S 718 mmHg 96%
    07:00 +7°C° 0,1 mm 1 m/S 718 mmHg 96%
    08:00 +8°C° 0 mm 1 m/S 718 mmHg 93%
    09:00 +8°C° 0 mm 2 m/S 719 mmHg 90%
    10:00 +9°C° 0 mm 2 m/S 719 mmHg 87%
    11:00 +10°C° 0 mm 2 m/S 719 mmHg 84%
    12:00 +12°C° 0 mm 2 m/S 719 mmHg 82%
    13:00 +12°C° 0 mm 2 m/S 719 mmHg 79%
    14:00 +12°C° 0 mm 1 m/S 719 mmHg 81%
    15:00 +12°C° 0 mm 1 m/S 718 mmHg 84%
    16:00 +12°C° 0 mm 1 m/S 718 mmHg 87%
    17:00 +11°C° 0 mm 1 m/S 719 mmHg 89%
    18:00 +11°C° 0 mm 1 m/S 719 mmHg 90%
    19:00 +10°C° 0 mm 1 m/S 720 mmHg 92%
    20:00 +10°C° 0 mm 1 m/S 720 mmHg 93%
    21:00 +10°C° 0 mm 1 m/S 720 mmHg 93%
    22:00 +10°C° 0 mm 1 m/S 720 mmHg 94%
    23:00 +9°C° 0 mm 1 m/S 720 mmHg 93%

    25 Oktober, Mittwoch

    Zeit Temperatur Niederschläge Wind Luftdruck Luftfeuchtigkeit
    00:00 +9°C° 0 mm 1 m/S 720 mmHg 93%
    01:00 +9°C° 0 mm 1 m/S 720 mmHg 93%
    02:00 +9°C° 0 mm 1 m/S 720 mmHg 93%
    03:00 +8°C° 0 mm 1 m/S 720 mmHg 93%
    04:00 +8°C° 0 mm 1 m/S 719 mmHg 93%
    05:00 +8°C° 0 mm 1 m/S 719 mmHg 93%
    06:00 +7°C° 0 mm 1 m/S 719 mmHg 92%
    07:00 +7°C° 0 mm 1 m/S 719 mmHg 92%
    08:00 +9°C° 0 mm 1 m/S 720 mmHg 87%
    09:00 +11°C° 0 mm 1 m/S 720 mmHg 82%
    10:00 +13°C° 0 mm 1 m/S 720 mmHg 77%
    11:00 +14°C° 0 mm 1 m/S 719 mmHg 73%
    12:00 +14°C° 0 mm 0 m/S 719 mmHg 70%
    13:00 +16°C° 0 mm 0 m/S 719 mmHg 66%
    14:00 +15°C° 0 mm 0 m/S 719 mmHg 70%
    15:00 +16°C° 0 mm 1 m/S 719 mmHg 74%
    16:00 +15°C° 0 mm 1 m/S 719 mmHg 77%
    17:00 +13°C° 0 mm 1 m/S 719 mmHg 82%
    18:00 +12°C° 0 mm 1 m/S 719 mmHg 86%
    19:00 +10°C° 0 mm 1 m/S 719 mmHg 91%
    20:00 +10°C° 0 mm 1 m/S 720 mmHg 91%
    21:00 +10°C° 0 mm 1 m/S 720 mmHg 92%
    22:00 +9°C° 0 mm 1 m/S 720 mmHg 92%
    23:00 +9°C° 0 mm 1 m/S 720 mmHg 91%

    26 Oktober, Donnerstag

    Zeit Temperatur Niederschläge Wind Luftdruck Luftfeuchtigkeit
    00:00 +9°C° 0 mm 1 m/S 720 mmHg 90%
    01:00 +9°C° 0 mm 1 m/S 720 mmHg 89%
    02:00 +8°C° 0 mm 1 m/S 719 mmHg 88%
    03:00 +8°C° 0 mm 1 m/S 719 mmHg 87%
    04:00 +8°C° 0 mm 1 m/S 719 mmHg 86%
    05:00 +8°C° 0 mm 1 m/S 719 mmHg 85%
    06:00 +8°C° 0 mm 1 m/S 719 mmHg 84%
    07:00 +8°C° 0 mm 1 m/S 719 mmHg 83%
    08:00 +10°C° 0 mm 1 m/S 719 mmHg 78%
    09:00 +12°C° 0 mm 1 m/S 720 mmHg 73%
    10:00 +14°C° 0 mm 1 m/S 720 mmHg 68%
    11:00 +15°C° 0 mm 1 m/S 720 mmHg 66%
    12:00 +18°C° 0 mm 1 m/S 720 mmHg 65%
    13:00 +19°C° 0 mm 1 m/S 720 mmHg 63%
    14:00 +18°C° 0 mm 1 m/S 719 mmHg 68%
    15:00 +16°C° 0 mm 1 m/S 719 mmHg 73%
    16:00 +16°C° 0 mm 1 m/S 719 mmHg 79%
    17:00 +14°C° 0 mm 1 m/S 719 mmHg 83%
    18:00 +13°C° 0 mm 1 m/S 719 mmHg 86%
    19:00 +11°C° 0 mm 1 m/S 719 mmHg 90%
    20:00 +11°C° 0 mm 1 m/S 719 mmHg 90%
    21:00 +11°C° 0 mm 1 m/S 720 mmHg 90%
    22:00 +10°C° 0 mm 1 m/S 720 mmHg 90%
    23:00 +10°C° 0 mm 1 m/S 720 mmHg 90%
    Mehr zeigen